Flag for Canada Weather past 2 weeks in Arviat, Nunavut Territory, Canada

Now
-6 °F

Clear.


Feels Like: -26 °F
Forecast: -2 / 12 °F
Wind: 14 mph from Northwest

Location: Arviat Airport

Current Time: Dec 20, 2014 at 3:04:19 AM

Latest Report: Dec 20, 2014 at 2:00 AM


Visibility: 9 mi

Pressure: 29.98 "Hg

Humidity: 84%

Dew point: -9 °F

Location of ArviatLocation

Historic Weather in Arviat — Graph

°F

Arviat temperature yesterday

Maximum temperature yesterday: 9 °F (at 2:00 PM)
Minimum temperature yesterday: -8 °F (at 9:00 PM)
Average temperature yesterday: 0 °F

Past Weeks' High & Low Weather Summary

 TemperatureHumidityPressure
High19 °F (Dec 10, 5:00 PM)100% (Dec 10, 6:00 PM)30.50 "Hg (Dec 10, 6:00 PM)
Low-26 °F (Dec 5, 2:00 PM)67% (Dec 6, 1:00 AM)29.28 "Hg (Dec 10, 8:02 PM)
Average-4 °F83%30.02 "Hg
* Reported Dec 5 2:00 AM — Dec 20 2:00 AM, Arviat, Weather by CustomWeather, © 2014

Note: Actual official high and low records may vary slightly from our data, if they occured in-between our weather recording intervals... More about our weather records

Advertising

Arviat weather history for previous 24 hours

 ConditionsComfort  
Time TempWeatherWind HumidityBarometerVisibility
2:00 AM
Dec 20
-6 °FClear.14 mph84%29.98 "Hg9 mi
1:00 AM-6 °FClear.13 mph84%29.97 "Hg9 mi
12:00 AM-6 °FClear.16 mph84%29.95 "Hg9 mi
11:00 PM
Dec 19
-8 °FClear.16 mph84%29.93 "Hg9 mi
10:00 PM-8 °FMostly cloudy.16 mph84%29.92 "Hg9 mi
9:00 PM-8 °FClear.14 mph84%29.91 "Hg9 mi
8:53 PM-6 °FClear.14 mph77%29.91 "Hg9 mi
8:00 PM-4 °FClear.14 mph84%29.90 "Hg9 mi
7:00 PM-2 °FPassing clouds.10 mph92%29.89 "Hg9 mi
6:00 PM1 °FOvercast.12 mph92%29.89 "Hg9 mi
5:00 PM3 °FMostly cloudy.15 mph92%29.88 "Hg15 mi
4:48 PM3 °FOvercast.16 mph92%29.88 "Hg15 mi
4:00 PM7 °FLight snow. Overcast.16 mph92%29.86 "Hg15 mi
3:00 PM9 °FLight snow. Overcast.9 mph92%29.84 "Hg6 mi
2:00 PM9 °FLight snow. Overcast.9 mph92%29.84 "Hg15 mi
1:00 PM7 °FLight snow. Overcast.8 mph92%29.84 "Hg8 mi
12:00 PM7 °FLight snow. Overcast.9 mph92%29.85 "Hg6 mi
11:00 AM3 °FLight snow. Overcast.6 mph92%29.85 "Hg10 mi
10:00 AM1 °FLight snow. Overcast.3 mph92%29.87 "Hg15 mi
9:00 AM1 °FLight snow. Overcast.5 mph85%29.88 "Hg4 mi
8:00 AM0 °FSnow flurries. Low clouds.3 mph84%29.89 "Hg1 mi
7:00 AM-2 °FIce fog.7 mph84%29.90 "Hg1 mi
6:03 AM-4 °FOvercast.7 mph84%29.91 "Hg9 mi
5:00 AM-4 °FLow clouds.12 mph84%29.91 "Hg9 mi
4:02 AM-4 °FIce fog.10 mph84%29.92 "Hg1 mi
3:00 AM-4 °FLow clouds.10 mph84%29.92 "Hg9 mi
Weather by CustomWeather, © 2014

See weather overviewHow to use our weather pages